[[{"header":{"parameterUnit":"m.s-1","parameterCategory":2,"la1":30.2991,"la2":30.254,"lo1":-89.0895,"lo2":-89.0444,"dy":0.0017,"dx":0.0017,"nx":28,"ny":28,"refTime":"2024-06-19T03:00:00:Z","depth":"0","parameterNumber":2,"parameterNumberName":"U-component_of_CURRENTS"},"data":[0,0,0,0,0,0,0,0,0,0,0,0,0,0,0,0,0,0,0,0,0,0,0,0,0,0,0,0,0,0,0,0,0,0,0,0,0,0,0,0,0,0,0,0,0,0,0,0,0,0,0,0,0,0,0,0,0,0,0.2487,0.2487,0,0.2425,0.2424,0.2424,0.2372,0.2372,0.2372,0.2371,0.2373,0.2373,0.2374,0,0,0,0,0,0,0,0,0,0,0,0,0,0.2568,0.2567,0.2487,0.2487,0.2486,0.2425,0.2424,0.2423,0.2372,0.2372,0.2371,0.2371,0.2373,0.2373,0.2374,0,0,0,0,0,0,0,0,0,0,0,0,0,0.252,0.2566,0.2487,0.2455,0.2451,0.2426,0.2424,0.2423,0.2372,0.2372,0.2371,0.2371,0.2373,0.2373,0.2374,0.2388,0,0,0.2375,0.2376,0,0,0,0,0,0,0,0,0.2523,0.2517,0.246,0.2457,0.2453,0.2408,0.2453,0.2415,0.2373,0.24,0.2371,0.2371,0.2392,0.2391,0.2377,0.2388,0.2388,0.2376,0.2376,0.2376,0.2376,0,0,0,0,0,0,0,0.2526,0.252,0.2461,0.246,0.2455,0.2446,0.2438,0.2446,0.24,0.2398,0.2394,0.2391,0.239,0.2376,0.2377,0.2388,0.2375,0.2376,0.2376,0.2377,0.2431,0.2432,0,0,0,0,0,0,0.2538,0.2523,0.2463,0.2459,0.249,0.2445,0.2436,0.2421,0.2398,0.2394,0.2391,0.2389,0.2376,0.2376,0.2377,0.2429,0.2376,0.2377,0.2377,0.243,0.2431,0.2432,0,0,0,0,0,0,0.254,0.2533,0.2465,0.2492,0.2483,0.2444,0.2428,0.242,0.2412,0.2393,0.2389,0.2392,0.2375,0.2376,0.2386,0.2427,0.2377,0.2377,0.2428,0.243,0.2432,0.251,0,0,0,0,0,0,0.2542,0.2534,0.2531,0.2492,0.2482,0.2461,0.2428,0.242,0.2411,0.2407,0.2393,0.2391,0.2375,0.2385,0.2386,0.2427,0.2378,0.2427,0.2429,0.2431,0.2506,0.2514,0.2521,0,0,0,0,0,0.2545,0.2538,0.2531,0.2524,0.2477,0.2462,0.2456,0.2426,0.2412,0.2415,0.24,0.2392,0.2399,0.2386,0.2388,0.2429,0.2426,0.2428,0.2431,0.2503,0.2512,0.2521,0,0,0,0,0,0,0.2561,0.2532,0.2522,0.2504,0.2493,0.2455,0.2453,0.2436,0.2424,0.2423,0.2402,0.24,0.2419,0.2413,0.2399,0.2449,0.2414,0.2417,0.2468,0.2477,0.2485,0.2472,0.2378,0,0,0,0,0,0.2568,0.256,0.2535,0.2522,0.252,0.2492,0.2483,0.2467,0.245,0.2443,0.2429,0.2424,0.243,0.2444,0.2435,0.2472,0.2489,0.25,0.2507,0.2514,0.2504,0.2576,0.259,0.244,0.244,0.244,0,0,0.2567,0.2554,0.2546,0.2527,0.2514,0.2514,0.2485,0.248,0.2481,0.2449,0.2448,0.2442,0.244,0.2466,0.2478,0.2471,0.257,0.2517,0.2523,0.2509,0.258,0.2595,0.2608,0.2442,0.2442,0.2441,0,0,0.2569,0.2557,0.2555,0.2555,0.2549,0.2536,0.2541,0.2515,0.2509,0.2513,0.2491,0.2511,0.2511,0.2523,0.2531,0.258,0.2594,0.2583,0.2631,0.2702,0.2715,0.2727,0.279,0.2806,0.2604,0.2604,0.2604,0,0.2568,0.2559,0.2554,0.2561,0.2564,0.2551,0.2557,0.2553,0.2532,0.2545,0.2523,0.2542,0.254,0.2592,0.2599,0.26,0.2634,0.2601,0.2714,0.2726,0.2737,0.2798,0.2815,0.2608,0.2608,0.2608,0.2607,0,0.2569,0.2571,0.2575,0.2579,0.2589,0.2591,0.2595,0.2606,0.2601,0.2599,0.2634,0.2628,0.2649,0.2659,0.2639,0.272,0.2719,0.2706,0.2696,0.2757,0.2817,0.2834,0.2614,0.2613,0.2612,0.2611,0,0,0.2516,0.2564,0.256,0.2578,0.26,0.2601,0.2636,0.2658,0.2687,0.2686,0.2728,0.2739,0.2744,0.275,0.275,0.2802,0.2912,0.2787,0.2789,0.2855,0.3073,0.3053,0.3069,0.2927,0.293,0.2932,0.3093,0,0.2507,0.2533,0.2562,0.2586,0.2598,0.2632,0.2665,0.2697,0.2722,0.2761,0.2788,0.2819,0.2781,0.2806,0.2854,0.2889,0.2955,0.2868,0.2995,0.2998,0.298,0.3087,0.2987,0.312,0.3109,0.3112,0.3114,0,0.2474,0.2504,0.2533,0.2601,0.2611,0.2634,0.2701,0.2731,0.2806,0.2834,0.2888,0.2902,0.2976,0.293,0.305,0.3,0.3037,0.3062,0.3069,0.3027,0.3009,0.3051,0.315,0.3085,0.3139,0.3137,0.3135,0,0.2414,0.2471,0.2499,0.2517,0.2595,0.2631,0.2673,0.2752,0.2786,0.2889,0.2938,0.3016,0.307,0.3129,0.3175,0.313,0.3303,0.3261,0.3282,0.3281,0.3205,0.3193,0.3256,0.3353,0.3353,0.3352,0.3352,0,0.2369,0.2381,0.2478,0.2487,0.2528,0.2608,0.266,0.2723,0.2821,0.2871,0.297,0.3031,0.3121,0.3217,0.3238,0.3327,0.3375,0.3309,0.3332,0.323,0.3219,0.3162,0.3124,0.3358,0.3357,0.3356,0.3355,0,0.2272,0.2335,0.2366,0.2466,0.2494,0.2521,0.2622,0.2667,0.2789,0.2866,0.2906,0.3072,0.3223,0.3314,0.3437,0.3424,0.341,0.3513,0.3384,0.3386,0.3306,0.3275,0.3235,0.3084,0.3566,0.3567,0.3567,0,0.2216,0.223,0.2322,0.2342,0.2383,0.2443,0.2485,0.2614,0.267,0.2871,0.2906,0.3108,0.3208,0.3423,0.3498,0.3601,0.3456,0.352,0.3404,0.3313,0.3297,0.3153,0.3015,0.335,0.3348,0.3347,0.3346,0,0.2116,0.2157,0.219,0.2242,0.2287,0.2323,0.2405,0.244,0.2601,0.2694,0.2842,0.2953,0.3231,0.3325,0.3496,0.3521,0.3348,0.35,0.3449,0.3172,0.2977,0.2838,0.323,0.3337,0.3338,0.3339,0.3339,0.3339,0.2029,0.2033,0.2097,0.2122,0.2171,0.2196,0.2181,0.2286,0.2354,0.2459,0.2666,0.278,0.3071,0.3326,0.3363,0.3395,0.3316,0.3276,0.3265,0.314,0.2926,0.3294,0.339,0.3391,0.3392,0.3393,0.3394,0,0.1917,0.1946,0.1977,0.2003,0.1991,0.2065,0.2111,0.2076,0.2094,0.2267,0.237,0.2624,0.2808,0.3042,0.3265,0.3179,0.2985,0.3078,0.2852,0.2733,0.3128,0.3048,0.3021,0.3021,0.3021,0.3021,0.3021,0.3021,0.1864,0.1849,0.1867,0.1811,0.1826,0.1754,0.174,0.1724,0.1802,0.1891,0.2025,0.2221,0.2625,0.3013,0.3098,0.3024,0.2758,0.2679,0.2591,0.2906,0.2922,0.2937,0.2853,0.2786,0.2785,0.2051,0.2046,0.2042]},{"header":{"parameterUnit":"m.s-1","parameterCategory":2,"la1":30.2991,"la2":30.254,"lo1":-89.0895,"lo2":-89.0444,"dy":0.0017,"dx":0.0017,"nx":28,"ny":28,"refTime":"2024-06-19T03:00:00:Z","depth":"0","parameterNumber":3,"parameterNumberName":"V-component_of_CURRENTS"},"data":[0,0,0,0,0,0,0,0,0,0,0,0,0,0,0,0,0,0,0,0,0,0,0,0,0,0,0,0,0,0,0,0,0,0,0,0,0,0,0,0,0,0,0,0,0,0,0,0,0,0,0,0,0,0,0,0,0,0,-0.04,-0.0401,0,-0.0504,-0.0506,-0.0507,-0.057,-0.057,-0.0569,-0.0569,-0.065,-0.0652,-0.0654,0,0,0,0,0,0,0,0,0,0,0,0,0,-0.0348,-0.0348,-0.04,-0.0401,-0.0402,-0.0504,-0.0506,-0.0508,-0.057,-0.057,-0.0569,-0.0569,-0.0649,-0.0652,-0.0654,0,0,0,0,0,0,0,0,0,0,0,0,0,-0.0407,-0.0348,-0.04,-0.0442,-0.0446,-0.0504,-0.0506,-0.0508,-0.057,-0.057,-0.0569,-0.0569,-0.0648,-0.0651,-0.0655,-0.0678,0,0,-0.0665,-0.0666,0,0,0,0,0,0,0,0,-0.0403,-0.0409,-0.0435,-0.0439,-0.0444,-0.052,-0.0517,-0.0562,-0.057,-0.0527,-0.0569,-0.0569,-0.0602,-0.0609,-0.0635,-0.0682,-0.0685,-0.0665,-0.0667,-0.0669,-0.067,0,0,0,0,0,0,0,-0.0399,-0.0405,-0.0445,-0.0436,-0.0441,-0.0488,-0.0495,-0.0527,-0.0567,-0.0531,-0.0535,-0.054,-0.0605,-0.0632,-0.0637,-0.0686,-0.0665,-0.0668,-0.067,-0.0671,-0.0739,-0.0739,0,0,0,0,0,0,-0.0373,-0.0401,-0.0442,-0.0448,-0.0418,-0.0488,-0.0497,-0.0499,-0.0567,-0.0576,-0.054,-0.0542,-0.0626,-0.0633,-0.064,-0.0653,-0.0669,-0.0672,-0.0674,-0.0739,-0.0739,-0.0739,0,0,0,0,0,0,-0.0371,-0.0376,-0.0438,-0.0424,-0.0434,-0.0488,-0.0491,-0.0501,-0.0522,-0.0573,-0.0583,-0.0548,-0.0626,-0.0635,-0.0655,-0.0657,-0.0673,-0.0676,-0.074,-0.0739,-0.0739,-0.069,0,0,0,0,0,0,-0.037,-0.0374,-0.0374,-0.0422,-0.0434,-0.0462,-0.0491,-0.0503,-0.0524,-0.0528,-0.0583,-0.0592,-0.0627,-0.065,-0.0658,-0.0662,-0.0679,-0.074,-0.0739,-0.0739,-0.0692,-0.0688,-0.0685,0,0,0,0,0,-0.0367,-0.0367,-0.0373,-0.0379,-0.0429,-0.0462,-0.0473,-0.0514,-0.0524,-0.0532,-0.0562,-0.0589,-0.0654,-0.0652,-0.0662,-0.0667,-0.074,-0.074,-0.0739,-0.0694,-0.0689,-0.0685,0,0,0,0,0,0,-0.0348,-0.0374,-0.0382,-0.039,-0.0416,-0.047,-0.0484,-0.0505,-0.054,-0.0541,-0.0586,-0.0596,-0.0626,-0.0644,-0.0641,-0.0685,-0.0702,-0.0704,-0.0664,-0.066,-0.0657,-0.0626,-0.0682,0,0,0,0,0,-0.034,-0.0346,-0.0375,-0.0382,-0.039,-0.0433,-0.0452,-0.0475,-0.0508,-0.0524,-0.0561,-0.0596,-0.0635,-0.0642,-0.0686,-0.0696,-0.0715,-0.0706,-0.0702,-0.0699,-0.0681,-0.0719,-0.0717,-0.0737,-0.0737,-0.0737,0,0,-0.0335,-0.035,-0.0354,-0.0378,-0.0404,-0.0413,-0.0446,-0.0467,-0.0477,-0.0526,-0.0551,-0.0595,-0.0639,-0.0666,-0.0678,-0.0675,-0.0703,-0.0698,-0.0695,-0.0679,-0.0718,-0.0716,-0.0715,-0.0737,-0.0737,-0.0737,0,0,-0.0325,-0.0337,-0.0335,-0.0351,-0.0375,-0.0399,-0.0397,-0.044,-0.0461,-0.0484,-0.053,-0.0556,-0.0611,-0.0639,-0.0661,-0.0656,-0.0697,-0.0679,-0.0621,-0.0659,-0.0657,-0.0656,-0.0672,-0.0673,-0.066,-0.066,-0.066,0,-0.0315,-0.0315,-0.0341,-0.0342,-0.0349,-0.0384,-0.038,-0.0409,-0.0454,-0.0462,-0.0481,-0.0559,-0.0597,-0.062,-0.062,-0.0648,-0.0671,-0.0634,-0.0653,-0.0653,-0.0652,-0.0669,-0.0671,-0.0657,-0.0658,-0.0658,-0.0658,0,-0.03,-0.0301,-0.0301,-0.0308,-0.0321,-0.0324,-0.0352,-0.0365,-0.0389,-0.0418,-0.0453,-0.0506,-0.0541,-0.0566,-0.059,-0.0607,-0.0626,-0.0659,-0.0661,-0.0647,-0.0666,-0.0669,-0.0654,-0.0655,-0.0656,-0.0656,0,0,-0.0263,-0.0285,-0.0281,-0.0272,-0.0299,-0.03,-0.0311,-0.0325,-0.0315,-0.0371,-0.0368,-0.0437,-0.0463,-0.0487,-0.0529,-0.0549,-0.0568,-0.059,-0.0593,-0.0599,-0.064,-0.0615,-0.0616,-0.0614,-0.0614,-0.0614,-0.0652,0,-0.0237,-0.0223,-0.0246,-0.0227,-0.0217,-0.0246,-0.0248,-0.0266,-0.0288,-0.0296,-0.0351,-0.0377,-0.0436,-0.0444,-0.0478,-0.0545,-0.0573,-0.0554,-0.0657,-0.0659,-0.0635,-0.0617,-0.0592,-0.0621,-0.0655,-0.0655,-0.0655,0,-0.0201,-0.0196,-0.0173,-0.0169,-0.0166,-0.0159,-0.0145,-0.0153,-0.0179,-0.0198,-0.0232,-0.0286,-0.0319,-0.0377,-0.0474,-0.0462,-0.0543,-0.0599,-0.0603,-0.0593,-0.0639,-0.0643,-0.0625,-0.0784,-0.0659,-0.0659,-0.0659,0,-0.0139,-0.0137,-0.0111,-0.0111,-0.0117,-0.0102,-0.0102,-0.0116,-0.0098,-0.0128,-0.0113,-0.0194,-0.0205,-0.0324,-0.0428,-0.0462,-0.0528,-0.0597,-0.0655,-0.0654,-0.0656,-0.0654,-0.0795,-0.068,-0.068,-0.068,-0.0679,0,-0.009,-0.0065,-0.0074,-0.0054,-0.001,-0.0036,0.0013,0.0,0.0008,0.005,-0.005,-0.0023,-0.0194,-0.0255,-0.0389,-0.0497,-0.0504,-0.0629,-0.0659,-0.0637,-0.0633,-0.0791,-0.0914,-0.0681,-0.0681,-0.068,-0.068,0,-0.0023,-0.0034,0.0004,0.0012,0.0022,0.006,0.0096,0.0134,0.0127,0.0185,0.0183,0.0117,0.0044,-0.0114,-0.0277,-0.0416,-0.0646,-0.0591,-0.0535,-0.0557,-0.0776,-0.0897,-0.1068,-0.1189,-0.0676,-0.0675,-0.0675,0,0.0013,0.0038,0.0068,0.0103,0.0113,0.016,0.0198,0.0197,0.0243,0.0286,0.0325,0.0277,0.0266,0.0052,-0.0188,-0.0404,-0.061,-0.0557,-0.0626,-0.0766,-0.0924,-0.101,-0.1108,-0.0616,-0.0615,-0.0614,-0.0614,0,0.0084,0.0094,0.0125,0.0195,0.0243,0.0296,0.035,0.0405,0.0426,0.0485,0.0559,0.0563,0.038,0.0193,-0.0102,-0.0282,-0.0694,-0.055,-0.0724,-0.0901,-0.0977,-0.1113,-0.0605,-0.0608,-0.0608,-0.0609,-0.0609,-0.0609,0.0145,0.0181,0.0223,0.029,0.0348,0.0423,0.0472,0.0548,0.064,0.0724,0.0731,0.0767,0.0497,0.0112,-0.0147,-0.0601,-0.0662,-0.0762,-0.0898,-0.0972,-0.1088,-0.0542,-0.0561,-0.0561,-0.0561,-0.0562,-0.0562,0,0.0216,0.0249,0.0316,0.0386,0.0456,0.0472,0.0565,0.0615,0.0732,0.0835,0.0901,0.0825,0.0453,0.0049,-0.0528,-0.0874,-0.1062,-0.1083,-0.1226,-0.1317,-0.0844,-0.0837,-0.0879,-0.0879,-0.0879,-0.0879,-0.0879,-0.0878,0.0254,0.032,0.0342,0.0457,0.0513,0.0585,0.0634,0.0726,0.0804,0.092,0.0973,0.0986,0.0755,-0.0277,-0.1061,-0.128,-0.1581,-0.1591,-0.1792,-0.1479,-0.146,-0.1442,-0.1462,-0.1635,-0.1636,-0.2204,-0.221,-0.2214]}],[{"header":{"parameterUnit":"m.s-1","parameterCategory":2,"la1":30.2991,"la2":30.254,"lo1":-89.0895,"lo2":-89.0444,"dy":0.0017,"dx":0.0017,"nx":28,"ny":28,"refTime":"2024-06-19T03:00:00:Z","depth":"2","parameterNumber":2,"parameterNumberName":"U-component_of_CURRENTS"},"data":[0,0,0,0,0,0,0,0,0,0,0,0,0,0,0,0,0,0,0,0,0,0,0,0,0,0,0,0,0,0,0,0,0,0,0,0,0,0,0,0,0,0,0,0,0,0,0,0,0,0,0,0,0,0,0,0,0,0,0.2522,0.2522,0,0.2461,0.246,0.2459,0.2408,0.2408,0.2408,0.2407,0.2411,0.2411,0.2412,0,0,0,0,0,0,0,0,0,0,0,0,0,0.2602,0.26,0.2522,0.2522,0.2521,0.2461,0.246,0.2459,0.2408,0.2408,0.2408,0.2407,0.2411,0.2411,0.2412,0,0,0,0,0,0,0,0,0,0,0,0,0,0.2555,0.26,0.2522,0.249,0.2487,0.2462,0.246,0.2459,0.2409,0.2408,0.2407,0.2407,0.241,0.2411,0.2412,0.2427,0,0,0.2414,0.2414,0,0,0,0,0,0,0,0,0.2558,0.2552,0.2495,0.2492,0.2488,0.2444,0.249,0.2452,0.2409,0.2436,0.2407,0.2407,0.2429,0.2428,0.2414,0.2427,0.2427,0.2414,0.2414,0.2414,0.2415,0,0,0,0,0,0,0,0.2561,0.2554,0.2496,0.2495,0.2491,0.2481,0.2473,0.2482,0.2436,0.2434,0.243,0.2427,0.2428,0.2414,0.2414,0.2427,0.2414,0.2414,0.2415,0.2415,0.2472,0.2473,0,0,0,0,0,0,0.2572,0.2557,0.2498,0.2494,0.2524,0.248,0.2472,0.2457,0.2435,0.2431,0.2427,0.2425,0.2413,0.2414,0.2414,0.2467,0.2414,0.2415,0.2415,0.2471,0.2473,0.2474,0,0,0,0,0,0,0.2574,0.2567,0.25,0.2527,0.2518,0.248,0.2463,0.2456,0.2448,0.243,0.2426,0.2428,0.2413,0.2414,0.2425,0.2465,0.2415,0.2416,0.247,0.2472,0.2473,0.2549,0,0,0,0,0,0,0.2576,0.2568,0.2565,0.2527,0.2517,0.2497,0.2464,0.2455,0.2447,0.2443,0.2429,0.2428,0.2412,0.2424,0.2426,0.2465,0.2416,0.2468,0.2471,0.2473,0.2545,0.2554,0.256,0,0,0,0,0,0.2579,0.2573,0.2565,0.2558,0.2512,0.2498,0.2492,0.2462,0.2448,0.2451,0.2437,0.2429,0.2439,0.2426,0.2427,0.2468,0.2467,0.247,0.2473,0.2542,0.2552,0.256,0,0,0,0,0,0,0.2595,0.2566,0.2557,0.2539,0.2528,0.249,0.2488,0.2472,0.2461,0.246,0.2439,0.2438,0.2458,0.2453,0.2439,0.2489,0.2454,0.2457,0.2507,0.2516,0.2523,0.251,0.2417,0,0,0,0,0,0.2602,0.2594,0.2569,0.2557,0.2555,0.2527,0.2519,0.2503,0.2487,0.248,0.2466,0.2463,0.247,0.2484,0.2476,0.2514,0.2531,0.2541,0.2549,0.2555,0.2545,0.2617,0.2631,0.2482,0.2482,0.2482,0,0,0.2601,0.2588,0.258,0.2562,0.2549,0.2549,0.252,0.2515,0.2517,0.2486,0.2486,0.2481,0.248,0.2507,0.2519,0.2512,0.2611,0.2558,0.2564,0.255,0.2622,0.2636,0.2649,0.2484,0.2484,0.2483,0,0,0.2602,0.2591,0.2589,0.2589,0.2584,0.257,0.2576,0.255,0.2544,0.255,0.2528,0.2549,0.255,0.2564,0.2572,0.2621,0.2635,0.2625,0.2671,0.2743,0.2756,0.2768,0.283,0.2847,0.2645,0.2646,0.2646,0,0.2601,0.2593,0.2588,0.2595,0.2599,0.2585,0.2592,0.2588,0.2568,0.2582,0.256,0.2581,0.258,0.2633,0.264,0.2641,0.2675,0.2641,0.2755,0.2767,0.2777,0.2838,0.2856,0.265,0.2649,0.2649,0.2648,0,0.2602,0.2605,0.2609,0.2613,0.2624,0.2626,0.263,0.2641,0.2636,0.2635,0.267,0.2666,0.2687,0.2698,0.2679,0.276,0.2758,0.2747,0.2736,0.2797,0.2857,0.2874,0.2655,0.2654,0.2653,0.2652,0,0,0.2549,0.2598,0.2594,0.2613,0.2634,0.2636,0.2671,0.2694,0.2723,0.2722,0.2764,0.2776,0.2781,0.2788,0.2789,0.2841,0.295,0.2826,0.2828,0.2894,0.3111,0.3084,0.3099,0.2966,0.2969,0.2971,0.3131,0,0.2541,0.2567,0.2596,0.2621,0.2633,0.2666,0.27,0.2733,0.2758,0.2797,0.2824,0.2856,0.2818,0.2843,0.2891,0.2928,0.2993,0.2907,0.3034,0.3037,0.3012,0.3117,0.2798,0.2911,0.3147,0.315,0.3152,0,0.2508,0.2538,0.2567,0.2635,0.2645,0.2669,0.2737,0.2767,0.2842,0.287,0.2924,0.2938,0.3012,0.2966,0.3087,0.3036,0.3074,0.3099,0.3107,0.3059,0.3041,0.2882,0.2932,0.318,0.3177,0.3175,0.3173,0,0.2447,0.2505,0.2533,0.2551,0.2629,0.2665,0.2708,0.2787,0.2822,0.2924,0.2974,0.3052,0.3106,0.3164,0.3211,0.3167,0.3339,0.3298,0.3313,0.3312,0.305,0.3021,0.3391,0.3391,0.3391,0.339,0.339,0,0.2402,0.2414,0.2511,0.2521,0.2562,0.2642,0.2694,0.2757,0.2856,0.2906,0.3005,0.3066,0.3156,0.3252,0.3274,0.3359,0.3411,0.334,0.3362,0.307,0.3042,0.3265,0.3248,0.3396,0.3395,0.3394,0.3393,0,0.2305,0.2368,0.2399,0.25,0.2528,0.2555,0.2657,0.2702,0.2824,0.2901,0.294,0.3107,0.3255,0.3346,0.347,0.3454,0.3528,0.354,0.3192,0.317,0.3434,0.3419,0.3585,0.3585,0.3586,0.3586,0.3587,0,0.2249,0.2263,0.2355,0.2376,0.2416,0.2476,0.2519,0.2648,0.2704,0.2906,0.2941,0.3141,0.3235,0.3446,0.3453,0.3536,0.3598,0.3309,0.3163,0.3455,0.346,0.3444,0.3429,0.2852,0.2846,0.2842,0.2838,0,0.2149,0.2189,0.2223,0.2275,0.232,0.2357,0.2439,0.2474,0.2635,0.2732,0.288,0.2986,0.3192,0.3158,0.33,0.3285,0.3269,0.3221,0.3636,0.2859,0.2779,0.2779,0.2785,0.2796,0.2801,0.2804,0.2806,0.2807,0.2062,0.2066,0.213,0.2155,0.2203,0.2229,0.2214,0.2355,0.243,0.2574,0.2718,0.2824,0.2903,0.298,0.2912,0.2875,0.3102,0.2965,0.2972,0.2986,0.288,0.2805,0.2808,0.2812,0.2816,0.2819,0.2822,0,0.197,0.1979,0.2009,0.2036,0.2051,0.2098,0.2144,0.2175,0.2246,0.2425,0.2535,0.2409,0.2404,0.2509,0.237,0.2389,0.2274,0.231,0.2125,0.2171,0.221,0.2056,0.177,0.1767,0.1763,0.176,0,0,0.1923,0.1918,0.1936,0.1896,0.1892,0.1884,0.1872,0.1959,0.2083,0.2179,0.2212,0.2382,0.2475,0.2119,0.2055,0.1902,0.2014,0.1815,0.2663,0.2494,0.2529,0.2601,0.242,0,0,0,0,0]},{"header":{"parameterUnit":"m.s-1","parameterCategory":2,"la1":30.2991,"la2":30.254,"lo1":-89.0895,"lo2":-89.0444,"dy":0.0017,"dx":0.0017,"nx":28,"ny":28,"refTime":"2024-06-19T03:00:00:Z","depth":"2","parameterNumber":3,"parameterNumberName":"V-component_of_CURRENTS"},"data":[0,0,0,0,0,0,0,0,0,0,0,0,0,0,0,0,0,0,0,0,0,0,0,0,0,0,0,0,0,0,0,0,0,0,0,0,0,0,0,0,0,0,0,0,0,0,0,0,0,0,0,0,0,0,0,0,0,0,-0.0402,-0.0402,0,-0.0506,-0.0507,-0.0509,-0.0571,-0.0571,-0.0571,-0.0571,-0.065,-0.0652,-0.0654,0,0,0,0,0,0,0,0,0,0,0,0,0,-0.035,-0.035,-0.0401,-0.0402,-0.0403,-0.0505,-0.0507,-0.0509,-0.0571,-0.0571,-0.0571,-0.0571,-0.0649,-0.0652,-0.0655,0,0,0,0,0,0,0,0,0,0,0,0,0,-0.0408,-0.035,-0.0401,-0.0443,-0.0448,-0.0505,-0.0507,-0.051,-0.0571,-0.0571,-0.0571,-0.0571,-0.0649,-0.0652,-0.0655,-0.0678,0,0,-0.0665,-0.0667,0,0,0,0,0,0,0,0,-0.0405,-0.0411,-0.0436,-0.0441,-0.0446,-0.0522,-0.0518,-0.0563,-0.0571,-0.0529,-0.0571,-0.057,-0.0602,-0.0609,-0.0635,-0.0682,-0.0685,-0.0665,-0.0667,-0.0669,-0.067,0,0,0,0,0,0,0,-0.0401,-0.0407,-0.0447,-0.0437,-0.0443,-0.0489,-0.0497,-0.0528,-0.0568,-0.0532,-0.0536,-0.0541,-0.0605,-0.0632,-0.0638,-0.0686,-0.0665,-0.0668,-0.067,-0.0672,-0.0737,-0.0737,0,0,0,0,0,0,-0.0375,-0.0403,-0.0443,-0.045,-0.042,-0.0489,-0.0498,-0.0501,-0.0568,-0.0577,-0.0541,-0.0544,-0.0627,-0.0634,-0.064,-0.0653,-0.0669,-0.0672,-0.0674,-0.0737,-0.0737,-0.0737,0,0,0,0,0,0,-0.0373,-0.0377,-0.0439,-0.0426,-0.0436,-0.0489,-0.0492,-0.0503,-0.0524,-0.0574,-0.0584,-0.0549,-0.0627,-0.0636,-0.0654,-0.0657,-0.0673,-0.0676,-0.0738,-0.0737,-0.0737,-0.0689,0,0,0,0,0,0,-0.0371,-0.0376,-0.0376,-0.0424,-0.0436,-0.0464,-0.0492,-0.0505,-0.0525,-0.053,-0.0584,-0.0592,-0.0627,-0.0649,-0.0657,-0.0661,-0.0679,-0.0738,-0.0737,-0.0737,-0.069,-0.0687,-0.0683,0,0,0,0,0,-0.0369,-0.0369,-0.0375,-0.0381,-0.0431,-0.0463,-0.0474,-0.0515,-0.0525,-0.0534,-0.0563,-0.059,-0.0652,-0.0651,-0.0661,-0.0666,-0.0738,-0.0737,-0.0737,-0.0692,-0.0687,-0.0683,0,0,0,0,0,0,-0.035,-0.0376,-0.0384,-0.0392,-0.0418,-0.0472,-0.0486,-0.0507,-0.054,-0.0541,-0.0586,-0.0596,-0.0625,-0.0643,-0.064,-0.0683,-0.0701,-0.0702,-0.0663,-0.0659,-0.0656,-0.0626,-0.0682,0,0,0,0,0,-0.0342,-0.0347,-0.0377,-0.0384,-0.0392,-0.0435,-0.0454,-0.0477,-0.0509,-0.0525,-0.0561,-0.0596,-0.0633,-0.064,-0.0684,-0.0693,-0.0713,-0.0703,-0.0699,-0.0696,-0.0679,-0.0717,-0.0715,-0.0735,-0.0735,-0.0735,0,0,-0.0337,-0.0351,-0.0356,-0.038,-0.0405,-0.0414,-0.0447,-0.0468,-0.0478,-0.0526,-0.0551,-0.0594,-0.0637,-0.0663,-0.0675,-0.0672,-0.07,-0.0695,-0.0692,-0.0676,-0.0716,-0.0714,-0.0712,-0.0735,-0.0735,-0.0735,0,0,-0.0327,-0.0339,-0.0337,-0.0353,-0.0377,-0.0401,-0.0398,-0.0441,-0.0462,-0.0485,-0.053,-0.0555,-0.061,-0.0637,-0.0658,-0.0652,-0.0694,-0.0675,-0.0618,-0.0655,-0.0653,-0.0652,-0.0668,-0.0669,-0.0656,-0.0656,-0.0656,0,-0.0317,-0.0317,-0.0343,-0.0343,-0.035,-0.0385,-0.0381,-0.041,-0.0455,-0.0462,-0.0482,-0.0558,-0.0595,-0.0618,-0.0617,-0.0644,-0.0668,-0.0631,-0.065,-0.0649,-0.0649,-0.0666,-0.0667,-0.0653,-0.0654,-0.0654,-0.0654,0,-0.0302,-0.0303,-0.0303,-0.0309,-0.0322,-0.0326,-0.0354,-0.0366,-0.039,-0.0419,-0.0453,-0.0505,-0.0539,-0.0564,-0.0588,-0.0604,-0.0623,-0.0656,-0.0658,-0.0644,-0.0663,-0.0665,-0.065,-0.0651,-0.0651,-0.0652,0,0,-0.0265,-0.0287,-0.0283,-0.0274,-0.03,-0.0301,-0.0312,-0.0326,-0.0315,-0.0371,-0.0367,-0.0436,-0.0462,-0.0485,-0.0527,-0.0546,-0.0566,-0.0587,-0.0591,-0.0597,-0.0638,-0.0614,-0.0614,-0.0611,-0.0611,-0.0612,-0.0649,0,-0.0238,-0.0224,-0.0248,-0.0228,-0.0218,-0.0247,-0.0249,-0.0267,-0.0288,-0.0295,-0.035,-0.0375,-0.0434,-0.0442,-0.0476,-0.0543,-0.0571,-0.0552,-0.0655,-0.0657,-0.0634,-0.0616,-0.0611,-0.0641,-0.0652,-0.0652,-0.0652,0,-0.0203,-0.0197,-0.0174,-0.017,-0.0167,-0.016,-0.0146,-0.0154,-0.0179,-0.0197,-0.023,-0.0283,-0.0317,-0.0375,-0.0472,-0.046,-0.0541,-0.0597,-0.0601,-0.0593,-0.0637,-0.0659,-0.0645,-0.0657,-0.0656,-0.0656,-0.0656,0,-0.014,-0.0138,-0.0113,-0.0112,-0.0118,-0.0103,-0.0103,-0.0116,-0.0098,-0.0127,-0.0112,-0.0192,-0.0203,-0.0321,-0.0426,-0.046,-0.0527,-0.0595,-0.0653,-0.0652,-0.0671,-0.0671,-0.0678,-0.0678,-0.0678,-0.0678,-0.0678,0,-0.0092,-0.0067,-0.0075,-0.0056,-0.0011,-0.0038,0.0011,-0.0001,0.0007,0.005,-0.0049,-0.0023,-0.0192,-0.0253,-0.0387,-0.0495,-0.0502,-0.0629,-0.0658,-0.0653,-0.0651,-0.0687,-0.0687,-0.0679,-0.0679,-0.0679,-0.0678,0,-0.0024,-0.0035,0.0002,0.0011,0.0021,0.0059,0.0094,0.0133,0.0126,0.0185,0.0182,0.0117,0.0043,-0.0114,-0.0277,-0.0415,-0.0543,-0.0591,-0.0554,-0.0578,-0.0663,-0.066,-0.0677,-0.0677,-0.0676,-0.0676,-0.0675,0,0.0011,0.0037,0.0066,0.0101,0.0111,0.0159,0.0196,0.0196,0.0241,0.0285,0.0324,0.0275,0.0254,0.004,-0.0214,-0.0435,-0.0475,-0.0578,-0.065,-0.0634,-0.0662,-0.066,-0.0658,-0.0663,-0.0662,-0.0662,-0.0661,0,0.0083,0.0092,0.0123,0.0193,0.0242,0.0295,0.0349,0.0403,0.0424,0.0475,0.0549,0.0542,0.0343,0.0119,-0.0183,-0.0342,-0.0545,-0.0578,-0.0573,-0.0651,-0.0621,-0.0647,-0.0646,-0.0658,-0.0659,-0.0659,-0.0659,-0.0659,0.0143,0.0179,0.0221,0.0288,0.0346,0.0421,0.047,0.0511,0.0591,0.0619,0.0664,0.0613,0.0413,-0.0011,-0.0218,-0.0484,-0.0512,-0.0637,-0.0639,-0.0641,-0.062,-0.0589,-0.0616,-0.0616,-0.0616,-0.0616,-0.0616,0,0.0209,0.0247,0.0314,0.0384,0.0442,0.0469,0.0562,0.0569,0.0631,0.0642,0.0658,0.0488,0.0261,0.0039,-0.0364,-0.0578,-0.0617,-0.0625,-0.0641,-0.0643,-0.0645,-0.0626,-0.0623,-0.0623,-0.0624,-0.0624,0,0,0.0246,0.0308,0.0329,0.0434,0.0497,0.0543,0.0592,0.0599,0.0588,0.0577,0.0536,0.0465,0.0266,-0.0009,-0.0261,-0.0459,-0.0515,-0.0496,-0.0478,-0.0473,-0.0472,-0.0644,-0.0614,0,0,0,0,0]}],[{"header":{"parameterUnit":"m.s-1","parameterCategory":2,"la1":30.2991,"la2":30.254,"lo1":-89.0895,"lo2":-89.0444,"dy":0.0017,"dx":0.0017,"nx":28,"ny":28,"refTime":"2024-06-19T03:00:00:Z","depth":"4","parameterNumber":2,"parameterNumberName":"U-component_of_CURRENTS"},"data":[0,0,0,0,0,0,0,0,0,0,0,0,0,0,0,0,0,0,0,0,0,0,0,0,0,0,0,0,0,0,0,0,0,0,0,0,0,0,0,0,0,0,0,0,0,0,0,0,0,0,0,0,0,0,0,0,0,0,0.1843,0.1843,0,0.1903,0.1903,0.1904,0.1964,0.1965,0.1966,0.1967,0.1992,0.1992,0.1992,0,0,0,0,0,0,0,0,0,0,0,0,0,0.1766,0.1767,0.1842,0.1843,0.1844,0.1903,0.1903,0.1904,0.1964,0.1966,0.1967,0.1968,0.1993,0.1992,0.1992,0,0,0,0,0,0,0,0,0,0,0,0,0,0.1809,0.1768,0.1842,0.1883,0.1887,0.1902,0.1903,0.1904,0.1964,0.1966,0.1967,0.1968,0.1993,0.1992,0.1992,0.196,0,0,0.1991,0.1991,0,0,0,0,0,0,0,0,0.1806,0.1811,0.1876,0.188,0.1885,0.1929,0.1886,0.1922,0.1964,0.1933,0.1967,0.1969,0.1968,0.197,0.1976,0.1961,0.1962,0.1991,0.1991,0.199,0.199,0,0,0,0,0,0,0,0.1803,0.1809,0.1864,0.1877,0.1882,0.1894,0.1901,0.1893,0.1939,0.1936,0.1941,0.195,0.197,0.1976,0.1977,0.1963,0.1991,0.199,0.199,0.199,0.2062,0.2064,0,0,0,0,0,0,0.1799,0.1806,0.1863,0.1866,0.185,0.1894,0.1902,0.1912,0.194,0.1947,0.1949,0.1952,0.1976,0.1977,0.1978,0.2049,0.199,0.199,0.199,0.206,0.2062,0.2065,0,0,0,0,0,0,0.1797,0.1803,0.186,0.1839,0.1847,0.1894,0.1904,0.1912,0.1958,0.1951,0.1957,0.199,0.1977,0.1978,0.2019,0.2046,0.199,0.199,0.2057,0.2061,0.2063,0.2122,0,0,0,0,0,0,0.1794,0.1802,0.1826,0.1839,0.1849,0.1894,0.1903,0.1913,0.1959,0.1966,0.1987,0.1989,0.1978,0.202,0.2018,0.2045,0.1989,0.2055,0.2059,0.2062,0.2117,0.2127,0.2135,0,0,0,0,0,0.1791,0.1812,0.1826,0.1835,0.1874,0.1895,0.1902,0.1937,0.1961,0.1983,0.2012,0.1991,0.2044,0.2021,0.2019,0.2046,0.2053,0.2058,0.2062,0.2113,0.2125,0.2135,0,0,0,0,0,0,0.1795,0.1821,0.1837,0.1867,0.1892,0.1907,0.1938,0.1957,0.1997,0.2016,0.2012,0.2016,0.2064,0.205,0.2025,0.2082,0.2047,0.2051,0.2086,0.2097,0.2106,0.2108,0.1989,0,0,0,0,0,0.1804,0.1831,0.1851,0.1881,0.1895,0.1923,0.1945,0.1967,0.1994,0.2016,0.2033,0.2054,0.2074,0.2085,0.2097,0.2119,0.2118,0.2139,0.2148,0.2155,0.2159,0.2194,0.2206,0.208,0.208,0.208,0,0,0.1814,0.1834,0.1851,0.1885,0.1909,0.1932,0.1941,0.1983,0.2012,0.2008,0.2069,0.2087,0.209,0.2127,0.2146,0.2122,0.2194,0.2161,0.2167,0.2167,0.22,0.2212,0.2223,0.2084,0.2083,0.2083,0,0,0.1833,0.1867,0.1891,0.1913,0.1955,0.1967,0.1987,0.2023,0.2056,0.2104,0.2117,0.2157,0.2184,0.2191,0.2196,0.2258,0.2243,0.2271,0.2308,0.2342,0.2352,0.2361,0.2381,0.2392,0.2269,0.2269,0.2269,0,0.1849,0.1878,0.1902,0.1928,0.1954,0.1986,0.2014,0.2043,0.2093,0.2122,0.2138,0.2209,0.2211,0.2248,0.2279,0.2275,0.2295,0.2263,0.2352,0.2361,0.2369,0.2387,0.2398,0.2273,0.2272,0.2272,0.2272,0,0.187,0.1909,0.1928,0.1969,0.1997,0.2031,0.2064,0.2108,0.2154,0.2183,0.2256,0.2274,0.2314,0.2325,0.2321,0.2381,0.2378,0.2362,0.232,0.2385,0.2401,0.241,0.2278,0.2276,0.2275,0.2275,0,0,0.1862,0.193,0.194,0.1969,0.2026,0.2045,0.2101,0.2152,0.2197,0.2258,0.2316,0.2363,0.239,0.2398,0.2404,0.2433,0.2506,0.2432,0.2432,0.2443,0.2589,0.2432,0.2428,0.2516,0.2518,0.252,0.2578,0,0.1875,0.1928,0.196,0.2015,0.2042,0.2091,0.2137,0.2191,0.2246,0.2309,0.2351,0.241,0.2411,0.2444,0.2478,0.2499,0.2536,0.2492,0.2533,0.2534,0.2378,0.2434,0.2526,0.2586,0.2588,0.2589,0.259,0,0.1874,0.1914,0.197,0.2041,0.2059,0.2101,0.218,0.2226,0.2311,0.2358,0.2426,0.2463,0.2524,0.2517,0.2592,0.2572,0.2595,0.2607,0.2609,0.2446,0.2394,0.2508,0.2608,0.2606,0.2605,0.2604,0.2603,0,0.1836,0.1915,0.1964,0.1989,0.2072,0.2118,0.217,0.2252,0.2299,0.2398,0.2449,0.2522,0.2572,0.2616,0.2654,0.2638,0.273,0.2697,0.2579,0.2568,0.2665,0.2655,0.276,0.276,0.276,0.276,0.276,0,0.1813,0.1857,0.1959,0.1983,0.2046,0.2113,0.2187,0.2248,0.234,0.2391,0.248,0.252,0.2608,0.2665,0.2683,0.2658,0.2756,0.2592,0.2574,0.269,0.2682,0.2672,0.2661,0.2762,0.2762,0.2761,0.2761,0,0.1752,0.1823,0.1883,0.1991,0.2029,0.2076,0.2191,0.2234,0.2338,0.2406,0.2445,0.2548,0.2603,0.2673,0.2739,0.2675,0.2676,0.2651,0.2782,0.2769,0.2484,0.2476,0.2498,0.2493,0.2488,0.2485,0.2482,0,0.172,0.1749,0.1875,0.1915,0.1971,0.2055,0.2106,0.222,0.2257,0.2395,0.2409,0.2516,0.2567,0.2531,0.2615,0.2631,0.2612,0.2597,0.2523,0.2477,0.2459,0.2457,0.2455,0.2475,0.2474,0.2473,0.2472,0,0.1657,0.1722,0.1774,0.1858,0.1926,0.1981,0.2062,0.2074,0.2191,0.2308,0.2312,0.2336,0.2393,0.242,0.2463,0.2472,0.2587,0.2551,0.2559,0.2489,0.245,0.2435,0.2438,0.2457,0.2459,0.2461,0.2461,0,0.1617,0.1639,0.1722,0.1778,0.186,0.1879,0.1932,0.1964,0.2012,0.2149,0.2146,0.2256,0.2361,0.2339,0.2376,0.2372,0.2328,0.225,0.2273,0.229,0.2195,0.2113,0.2004,0,0,0,0,0,0.1564,0.1579,0.1631,0.1683,0.1759,0.1805,0.1887,0.1936,0.2044,0.1995,0.2059,0.2096,0.212,0.2178,0.2131,0.2297,0.2352,0.2233,0.2279,0.2375,0.2392,0.2298,0,0,0,0,0,0,0.1528,0.158,0.1596,0.1593,0.1612,0.1675,0.1722,0.1796,0.1762,0.1878,0.1897,0.1989,0.2044,0.2134,0.21,0.2119,0.2108,0.2307,0.2302,0.2365,0.2381,0.2395,0.2304,0,0,0,0,0]},{"header":{"parameterUnit":"m.s-1","parameterCategory":2,"la1":30.2991,"la2":30.254,"lo1":-89.0895,"lo2":-89.0444,"dy":0.0017,"dx":0.0017,"nx":28,"ny":28,"refTime":"2024-06-19T03:00:00:Z","depth":"4","parameterNumber":3,"parameterNumberName":"V-component_of_CURRENTS"},"data":[0,0,0,0,0,0,0,0,0,0,0,0,0,0,0,0,0,0,0,0,0,0,0,0,0,0,0,0,0,0,0,0,0,0,0,0,0,0,0,0,0,0,0,0,0,0,0,0,0,0,0,0,0,0,0,0,0,0,-0.0067,-0.0067,0,-0.0083,-0.0083,-0.0084,-0.0089,-0.0089,-0.0089,-0.0089,-0.0191,-0.0193,-0.0196,0,0,0,0,0,0,0,0,0,0,0,0,0,-0.0057,-0.0057,-0.0067,-0.0067,-0.0067,-0.0083,-0.0083,-0.0084,-0.0089,-0.0089,-0.0089,-0.0089,-0.019,-0.0193,-0.0196,0,0,0,0,0,0,0,0,0,0,0,0,0,-0.0065,-0.0057,-0.0067,-0.0073,-0.0073,-0.0083,-0.0083,-0.0084,-0.0089,-0.0089,-0.0089,-0.0089,-0.0189,-0.0193,-0.0197,-0.0222,0,0,-0.0209,-0.0211,0,0,0,0,0,0,0,0,-0.0065,-0.0065,-0.0071,-0.0072,-0.0073,-0.0085,-0.0117,-0.0134,-0.0089,-0.0082,-0.0089,-0.0089,-0.0164,-0.017,-0.0171,-0.0227,-0.0231,-0.021,-0.0212,-0.0214,-0.0215,0,0,0,0,0,0,0,-0.0064,-0.0065,-0.0072,-0.0072,-0.0073,-0.008,-0.0081,-0.012,-0.0124,-0.0083,-0.0083,-0.0086,-0.0165,-0.0166,-0.0173,-0.0232,-0.0209,-0.0213,-0.0216,-0.0217,-0.0292,-0.0291,0,0,0,0,0,0,-0.0063,-0.0064,-0.0072,-0.0073,-0.007,-0.008,-0.0081,-0.008,-0.0121,-0.0127,-0.0086,-0.0087,-0.016,-0.0168,-0.0177,-0.0196,-0.0214,-0.0218,-0.022,-0.0292,-0.0292,-0.0291,0,0,0,0,0,0,-0.0062,-0.0063,-0.0071,-0.007,-0.0072,-0.008,-0.0079,-0.0081,-0.0084,-0.0123,-0.0131,-0.0089,-0.016,-0.0171,-0.0208,-0.0201,-0.0219,-0.0223,-0.0293,-0.0292,-0.0291,-0.0243,0,0,0,0,0,0,-0.0062,-0.0063,-0.0062,-0.007,-0.0072,-0.0075,-0.0079,-0.0081,-0.0087,-0.0087,-0.0128,-0.0137,-0.0161,-0.0202,-0.0212,-0.0207,-0.0226,-0.0293,-0.0292,-0.0291,-0.0245,-0.0241,-0.0237,0,0,0,0,0,-0.0061,-0.0058,-0.0062,-0.0063,-0.007,-0.0075,-0.0077,-0.0083,-0.0087,-0.0086,-0.0113,-0.0136,-0.0203,-0.0205,-0.0218,-0.0213,-0.0294,-0.0293,-0.0292,-0.0247,-0.0242,-0.0237,0,0,0,0,0,0,-0.0051,-0.0059,-0.0063,-0.0062,-0.0069,-0.0076,-0.0078,-0.0084,-0.0102,-0.0107,-0.0141,-0.0152,-0.0171,-0.0204,-0.0205,-0.0229,-0.0248,-0.025,-0.021,-0.0206,-0.0201,-0.0186,-0.023,0,0,0,0,0,-0.005,-0.005,-0.0059,-0.0058,-0.0061,-0.0071,-0.0074,-0.0079,-0.0096,-0.0103,-0.0129,-0.0158,-0.0176,-0.0201,-0.022,-0.0252,-0.0272,-0.0253,-0.0249,-0.0245,-0.024,-0.0253,-0.025,-0.0288,-0.0288,-0.0288,0,0,-0.0046,-0.005,-0.005,-0.0056,-0.0062,-0.0058,-0.0072,-0.0077,-0.007,-0.0115,-0.012,-0.0143,-0.0177,-0.0194,-0.0207,-0.0226,-0.0247,-0.0244,-0.0241,-0.0237,-0.0252,-0.0248,-0.0245,-0.0287,-0.0287,-0.0287,0,0,-0.0035,-0.0042,-0.0037,-0.0042,-0.005,-0.0053,-0.0055,-0.0064,-0.0065,-0.0079,-0.0096,-0.0119,-0.0158,-0.0175,-0.019,-0.0182,-0.0214,-0.0186,-0.017,-0.0183,-0.0179,-0.0177,-0.0206,-0.0207,-0.0197,-0.0197,-0.0197,0,-0.0028,-0.0024,-0.0037,-0.0034,-0.003,-0.0049,-0.0038,-0.0042,-0.006,-0.006,-0.0075,-0.0106,-0.0145,-0.0154,-0.0151,-0.0173,-0.0188,-0.0186,-0.0177,-0.0175,-0.0173,-0.0203,-0.0205,-0.0194,-0.0195,-0.0195,-0.0195,0,-0.0014,-0.001,-0.0008,-0.0005,-0.0004,-0.0001,-0.0006,-0.0006,-0.0012,-0.0017,-0.0023,-0.0065,-0.0084,-0.0099,-0.013,-0.0132,-0.0149,-0.0158,-0.0188,-0.0166,-0.02,-0.0202,-0.0191,-0.0192,-0.0193,-0.0193,0,0,0.0007,0.0003,0.0006,0.0014,0.0012,0.0017,0.0029,0.0037,0.005,0.0028,0.0042,0.0003,-0.0017,-0.0035,-0.0069,-0.0096,-0.0112,-0.0126,-0.0127,-0.0152,-0.0149,-0.0184,-0.019,-0.0116,-0.0116,-0.0116,-0.0181,0,0.0025,0.004,0.0036,0.0059,0.0068,0.0063,0.008,0.0083,0.0081,0.0086,0.0053,0.0048,0.0009,-0.0005,-0.0031,-0.0083,-0.0114,-0.0094,-0.0169,-0.0172,-0.0203,-0.0192,-0.0115,-0.0183,-0.0184,-0.0184,-0.0184,0,0.0044,0.0053,0.0076,0.0097,0.0102,0.0115,0.0143,0.0153,0.0154,0.0149,0.0139,0.0117,0.0082,0.0045,-0.0027,-0.001,-0.0076,-0.0124,-0.0127,-0.0176,-0.021,-0.0208,-0.0188,-0.0188,-0.0188,-0.0188,-0.0187,0,0.0068,0.0085,0.0107,0.0112,0.013,0.0147,0.0159,0.0171,0.0191,0.0185,0.0191,0.0162,0.014,0.0078,-0.0027,-0.0023,-0.0115,-0.0121,-0.0214,-0.0218,-0.0189,-0.0191,-0.0174,-0.0174,-0.0174,-0.0174,-0.0174,0,0.009,0.0108,0.0119,0.0131,0.0168,0.0171,0.021,0.0215,0.0234,0.0258,0.0222,0.0226,0.0147,0.0086,-0.0005,-0.0119,-0.0098,-0.0209,-0.0233,-0.0169,-0.0168,-0.0192,-0.0193,-0.0177,-0.0176,-0.0176,-0.0175,0,0.0108,0.0113,0.0141,0.0165,0.0178,0.0202,0.0243,0.027,0.0275,0.0306,0.0306,0.0274,0.0192,0.0094,-0.0023,-0.0097,-0.0203,-0.0256,-0.0193,-0.0213,-0.0303,-0.0301,-0.0345,-0.0347,-0.0348,-0.0349,-0.035,0,0.0116,0.0131,0.0165,0.0188,0.02,0.0235,0.0265,0.0287,0.0316,0.0332,0.0345,0.0285,0.0244,0.0065,-0.0051,-0.0222,-0.0255,-0.0312,-0.0294,-0.0299,-0.0318,-0.0314,-0.031,-0.0353,-0.0353,-0.0353,-0.0354,0,0.0133,0.0145,0.0168,0.0211,0.0245,0.0286,0.0324,0.0352,0.0378,0.0389,0.0382,0.03,0.0198,0.0067,-0.0081,-0.0204,-0.0267,-0.0327,-0.0325,-0.0308,-0.0308,-0.0325,-0.032,-0.0359,-0.0358,-0.0357,-0.0357,0,0.0147,0.0162,0.0192,0.0231,0.0275,0.0316,0.034,0.0371,0.0399,0.0418,0.0412,0.0312,0.0264,0.0073,-0.0058,-0.0186,-0.0213,-0.0248,-0.025,-0.0247,-0.0204,-0.0189,-0.022,0,0,0,0,0,0.0157,0.0171,0.021,0.0248,0.0293,0.0314,0.0371,0.0394,0.0421,0.0425,0.0425,0.0332,0.0154,0.0079,-0.0053,-0.0103,-0.0253,-0.0265,-0.0298,-0.0386,-0.038,-0.035,0,0,0,0,0,0,0.0161,0.0192,0.0204,0.0251,0.0277,0.0326,0.036,0.0386,0.0387,0.0405,0.0316,0.0286,0.0111,0.0228,-0.006,-0.01,-0.0141,-0.0344,-0.0347,-0.0389,-0.0384,-0.0379,-0.0346,0,0,0,0,0]}]]